This demonstration page uses our WeatherBlox Daily Observations layout. Learn more.

41.55636, -103.73856

Hourly Observations for July 12, 2016

Temp ( °F °C ) Dew Point ( °F °C ) Humidity (%) Winds ( mph kmh ) Pressure ( in mb ) Visibility ( mi km ) Precip ( " mm )
12:53 am 00:53 Clear 56 13.3 40 4.4 55 55 E 6 9 29.86 1011 10 16.0934 0 0
1:53 am 01:53 Clear 54 12.2 39 3.9 57 57 NNE 6 9 29.85 1011 10 16.0934 0 0
2:53 am 02:53 Clear 54 12.2 41 5 62 62 Calm 29.83 1010 10 16.0934 0 0
3:53 am 03:53 Clear 49 9.4 41 5 74 74 N 6 9 29.83 1010 10 16.0934 0 0
4:53 am 04:53 Clear 48 8.9 41 5 77 77 Calm 29.84 1010 10 16.0934 0 0
5:53 am 05:53 Sunny 48 8.9 42 5.6 80 80 WNW 3 6 29.85 1011 10 16.0934 0 0
6:53 am 06:53 Sunny 54 12.2 43 6.1 67 67 N 3 6 29.87 1011 10 16.0934 0 0
7:53 am 07:53 Sunny 63 17.2 37 2.8 38 38 NNW 3 6 29.88 1012 10 16.0934 0 0
8:53 am 08:53 Sunny 68 20 40 4.4 36 36 SE 6 9 29.89 1012 10 16.0934 0 0
9:53 am 09:53 Sunny 76 24.4 40 4.4 27 27 SE 7 11 29.87 1012 10 16.0934 0 0
10:53 am 10:53 Sunny 81 27.2 34 1.1 18 18 SSW 12 19 29.84 1010 10 16.0934 0 0
11:53 am 11:53 Sunny 85 29.4 32 0 15 15 S 16 26 29.81 1010 10 16.0934 0 0
12:53 pm 12:53 Sunny 87 30.6 33 0.6 14 14 S 14 22 29.79 1009 10 16.0934 0 0
1:53 pm 13:53 Sunny 89 31.7 30 -1.1 12 12 SW 12 19 29.76 1008 10 16.0934 0 0
2:53 pm 14:53 Sunny 91 32.8 29 -1.7 11 11 W 13 20 29.74 1007 10 16.0934 0 0
3:53 pm 15:53 Sunny 92 33.3 27 -2.8 10 10 W 13 20 29.74 1007 10 16.0934 0 0
4:53 pm 16:53 Sunny 93 33.9 25 -3.9 8 8 WNW 14 22 29.72 1007 10 16.0934 0 0
5:53 pm 17:53 Sunny 91 32.8 31 -0.6 12 12 NW 10 17 29.72 1007 10 16.0934 0 0
6:53 pm 18:53 Sunny 90 32.2 32 0 13 13 NW 6 9 29.72 1006 10 16.0934 0 0
7:53 pm 19:53 Sunny 84 28.9 37 2.8 19 19 SSE 3 6 29.72 1006 10 16.0934 0 0
8:53 pm 20:53 Clear 79 26.1 38 3.3 23 23 SSE 8 13 29.72 1007 10 16.0934 0 0
9:53 pm 21:53 Clear 72 22.2 47 8.3 41 41 NE 8 13 29.75 1008 10 16.0934 0 0
10:53 pm 22:53 Clear 72 22.2 42 5.6 34 34 N 6 9 29.75 1008 10 16.0934 0 0
11:53 pm 23:53 Clear 72 22.2 39 3.9 30 30 Calm 29.74 1007 10 16.0934 0 0

Powered by AerisWeather